Location: Haram ta Haram Freeway
(35.0583°N, 51.4202°E)
Time: 16:32:41
(UTC+03:30)

IRIDIUM 33 DEB - Pass Details

Date: 29 November 2021
Orbit: 663 x 816 km, 86.4° (Epoch: 18 January)

Event Time Altitude Azimuth Distance (km) Brightness Sun altitude
Rises 18:56:43 0° 171° (S) 3,336 ? -24.9°
Reaches altitude 10° 18:59:07 10° 168° (SSE) 2,412 ? -25.4°
Enters shadow 19:01:46 29° 158° (SSE) 1,460 ? -25.9°
